RH
40 48 53 55 58 54 55 71 84 98 95 59 67 55 67 95 99 100 91 87 54 36 67 82 95 100 97 97 72 48 25 6 4 4 5 6 9 10 12 15 16 17 17
31 38 40 48 58 60 60 56 60 80 99 93 62 79 65 78 99 99 99 98 78 28 52 78 92 99 100 98 88 73 54 23 4 4 5 6 8 10 13 16 18 18 18
30 28 34 42 53 67 63 63 61 62 75 91 92 70 86 73 76 100 100 99 95 38 28 64 82 89 96 96 89 84 75 55 12 4 5 6 8 10 15 18 20 22 22
13 32 32 30 41 56 72 71 68 66 70 73 93 98 82 92 81 86 99 93 100 46 16 29 72 94 100 100 95 97 92 82 41 4 5 6 8 10 15 18 21 22 24
4 5 21 36 32 40 51 70 78 73 63 70 83 82 92 98 100 94 96 96 100 54 20 12 33 80 100 99 100 98 91 84 70 22 4 6 8 9 14 18 21 22 22
4 4 5 9 35 39 41 48 57 83 81 70 68 73 84 99 94 92 98 94 99 60 45 16 10 38 88 89 99 99 93 86 75 57 9 5 8 11 14 18 20 20 21
5 4 4 5 5 25 43 46 47 53 93 99 98 89 95 99 96 88 94 83 99 67 72 33 12 11 65 99 100 97 99 98 88 71 31 10 6 9 11 13 16 17 18
9 6 5 5 6 6 14 40 48 48 55 94 98 98 100 92 93 98 96 96 82 74 86 63 18 10 42 89 100 99 100 97 95 85 66 47 10 9 11 11 12 13 14
12 10 8 6 6 7 8 12 35 48 49 57 97 99 100 99 89 99 100 100 98 94 89 85 41 15 10 46 99 98 100 99 93 89 84 79 54 12 15 14 13 11 10
16 14 13 10 7 8 10 11 13 31 44 50 58 100 99 100 99 97 85 98 100 100 92 92 64 29 12 13 56 92 100 99 93 84 83 80 69 16 22 20 17 14 10
18 18 16 14 11 9 11 14 15 16 28 43 50 85 99 100 100 97 99 95 100 99 91 88 97 57 30 13 24 73 99 97 99 92 82 74 54 25 38 34 26 18 13
21 19 19 18 15 11 11 14 18 18 20 28 47 62 98 98 97 100 100 99 100 96 96 93 91 83 59 21 11 10 44 100 99 95 88 80 66 40 63 50 37 22 13
29 25 21 21 20 16 12 13 19 23 21 22 37 52 88 100 100 99 100 96 99 98 98 98 95 98 80 35 14 11 21 49 99 94 86 80 93 87 85 78 60 43 16
33 32 27 23 24 20 15 13 15 21 26 22 25 52 88 100 99 100 97 98 98 99 96 91 100 97 97 45 22 28 43 64 70 80 88 97 98 89 90 98 65 60 22
38 37 34 28 26 25 19 15 14 18 24 25 22 35 71 100 100 97 100 98 99 99 80 97 98 99 100 64 37 72 70 52 80 60 88 99 98 99 87 92 62 62 30
44 41 39 36 31 29 24 18 15 15 20 25 24 22 42 66 100 99 99 100 100 99 97 100 98 100 100 84 51 63 70 87 61 91 100 85 98 93 82 88 66 51 32
58 48 44 40 37 33 31 21 17 14 16 21 24 22 23 42 100 99 100 99 100 100 99 100 99 100 100 100 84 61 90 96 97 89 100 96 81 69 52 63 50 40 37
74 66 54 44 41 37 34 28 20 16 14 18 22 23 21 24 55 100 100 100 100 99 100 98 99 97 99 97 99 90 53 39 83 96 100 90 68 96 50 40 21 33 38
85 80 71 56 43 39 36 32 24 19 14 13 18 21 20 21 24 64 98 99 100 100 99 99 100 100 100 100 100 100 97 64 71 76 79 67 72 63 71 34 24 42 47
90 88 82 69 56 43 37 33 30 22 17 13 14 17 19 19 20 22 92 98 100 96 100 100 99 99 100 96 98 100 99 96 68 70 73 84 90 90 79 50 36 58 76
92 92 88 80 68 50 39 34 30 26 21 14 12 14 15 18 18 19 32 92 99 100 99 100 100 98 99 100 99 100 100 99 98 96 86 80 82 87 82 55 57 83 93
100 98 94 89 74 58 44 37 32 26 23 17 13 12 10 20 22 20 19 28 70 99 98 99 98 99 100 99 100 99 99 100 87 92 84 87 88 81 77 74 78 86 86
100 100 99 97 81 64 52 37 34 28 23 20 15 12 13 33 35 29 25 20 26 90 97 99 99 92 99 100 100 100 100 98 100 90 84 81 84 79 74 69 82 88 93
100 100 100 100 82 68 53 42 36 30 24 21 18 16 15 22 34 43 39 31 22 22 65 94 98 99 98 100 99 99 100 100 100 100 100 95 87 85 74 71 85 94 100
100 100 100 100 86 73 62 48 40 33 28 24 22 22 20 19 28 47 44 35 26 20 21 60 97 100 98 98 99 100 99 99 99 99 100 100 89 100 86 90 89 94 100
100 100 100 100 96 84 77 67 66 55 43 45 51 59 59 48 58 57 52 45 37 24 20 32 78 96 99 99 99 100 100 98 98 100 97 100 100 100 100 96 99 99 100
Wind_Speed
52 53 53 51 49 49 49 49 47 42 43 41 40 41 40 37 34 35 32 28 24 26 30 33 29 28 27 23 20 19 19 20 21 22 22 22 21 19 18 16 15 14 13
57 54 54 55 54 52 51 51 51 49 46 44 44 43 43 42 41 40 38 36 31 31 34 36 32 30 30 26 23 22 21 20 21 22 23 23 23 21 19 18 16 14 14
58 58 57 55 56 56 55 54 53 51 50 47 50 48 45 44 46 44 43 43 38 33 39 40 38 30 32 29 25 23 22 21 22 23 24 24 24 23 22 20 17 16 15
59 60 60 59 57 56 58 56 55 54 51 51 55 49 50 47 53 50 46 47 44 37 39 43 41 36 46 33 31 26 23 23 24 24 25 25 26 25 24 22 20 18 17
53 57 61 61 61 59 57 59 57 56 57 52 52 54 46 51 56 51 52 49 47 41 39 42 46 48 36 31 32 29 25 24 24 25 24 26 28 27 27 25 22 20 19
51 52 55 60 61 61 60 59 60 58 56 55 54 56 56 46 46 51 51 48 46 44 39 42 46 51 44 39 37 35 30 26 24 25 25 27 28 28 28 27 25 23 21
47 50 51 53 57 60 59 60 60 59 56 52 46 46 46 36 46 48 62 54 48 46 40 41 43 49 48 40 43 38 31 26 25 23 23 26 28 29 29 28 27 25 24
45 47 49 49 52 54 56 59 59 59 55 55 49 45 45 50 44 48 60 56 54 47 44 44 42 45 52 51 42 39 32 28 26 22 21 21 26 28 28 28 27 27 26
43 45 46 47 48 50 50 52 57 56 55 54 55 55 51 46 51 40 56 57 59 54 51 47 44 44 51 56 47 37 38 31 28 25 22 21 26 29 28 27 26 25 24
40 43 44 45 45 46 46 47 49 53 53 52 54 52 55 52 36 44 56 52 54 54 62 49 48 46 46 56 58 51 43 35 34 30 26 22 25 31 29 27 25 24 24
36 40 42 43 43 44 44 43 45 47 50 49 53 55 55 48 46 33 42 43 55 53 58 61 51 48 45 50 59 60 55 47 46 40 33 27 27 31 28 26 25 25 25
37 36 39 41 42 42 43 42 42 43 45 48 52 55 54 60 52 52 33 34 39 52 46 55 63 55 47 46 52 58 60 47 50 44 38 34 28 29 28 25 25 24 25
36 37 37 39 39 41 41 42 41 40 42 46 52 58 63 54 57 61 65 51 41 49 53 58 65 63 50 49 48 50 56 56 49 49 42 38 35 31 29 28 25 24 23
35 36 37 37 38 38 39 41 40 39 39 43 51 58 60 62 59 58 57 56 49 46 45 48 64 60 60 51 47 46 48 57 56 51 45 42 37 33 30 31 28 26 23
35 35 37 38 36 36 38 40 41 39 38 41 46 56 64 64 63 58 47 46 55 45 52 58 61 65 58 50 46 44 43 49 58 53 50 44 37 40 35 34 31 30 27
36 35 35 37 37 35 35 38 40 39 38 38 43 50 60 69 63 61 52 53 49 46 52 56 48 66 61 49 42 44 46 44 49 55 48 43 48 40 41 39 36 33 30
35 34 34 35 36 35 34 36 37 40 40 38 41 46 55 60 64 58 62 62 47 50 57 41 51 54 55 45 45 46 48 47 52 58 50 49 43 41 40 41 36 36 31
32 33 32 33 34 35 33 33 36 37 40 39 39 43 49 55 64 65 63 67 62 48 47 56 45 53 64 57 51 47 47 50 52 51 59 37 40 45 39 37 36 37 32
29 29 30 31 32 33 34 32 33 35 39 39 39 41 46 49 52 68 63 59 69 55 60 58 48 45 60 64 53 52 48 45 53 40 44 41 42 40 38 37 36 35 33
29 27 28 28 29 30 32 33 32 34 35 39 39 39 43 48 51 52 70 62 65 62 55 52 57 36 57 67 62 55 56 53 51 47 46 46 44 42 40 39 37 35 34
28 27 27 26 27 29 29 31 31 32 33 36 38 39 40 45 48 51 59 65 71 66 60 66 59 48 34 55 71 60 56 54 55 53 51 49 48 45 44 42 40 37 34
25 25 25 25 24 25 26 28 30 31 31 33 37 37 39 41 45 50 53 57 72 68 72 66 56 51 48 38 55 72 63 56 61 61 58 53 49 46 44 43 40 36 34
25 22 21 22 21 21 22 24 26 30 31 31 35 36 38 40 42 47 50 54 61 74 71 65 56 59 57 51 44 61 63 60 61 61 58 56 53 50 48 43 41 38 35
24 20 17 17 17 15 19 21 22 26 28 29 31 34 37 40 40 43 48 52 55 58 65 71 57 51 62 61 62 61 60 63 63 63 58 59 53 53 50 45 43 40 39
20 16 14 13 13 11 16 16 19 22 24 26 27 29 33 38 40 41 46 53 55 57 60 70 75 61 59 47 59 62 61 63 64 67 66 59 57 56 52 48 46 43 40
17 14 12 11 10 8 11 12 15 17 20 22 25 28 32 36 38 41 45 49 52 54 59 67 83 79 59 58 57 66 65 65 59 70 66 63 61 58 57 52 49 47 45
Wind_Direction
256 256 256 254 252 252 252 251 248 247 248 243 240 238 233 230 232 235 238 238 233 223 222 224 232 236 235 229 233 233 231 225 214 212 213 214 214 216 220 223 225 228 232
258 255 253 255 253 250 250 251 251 247 243 244 241 239 236 234 232 233 237 240 238 226 222 227 233 235 239 238 232 235 238 234 222 215 213 214 216 217 220 225 224 227 229
260 258 253 251 251 252 249 249 250 250 246 244 244 243 239 235 237 233 235 236 240 232 225 226 230 236 233 237 233 235 238 242 233 217 214 213 217 217 219 222 223 224 228
261 258 256 252 249 248 250 248 248 248 248 244 248 241 244 243 233 233 235 238 237 235 230 226 227 227 225 231 235 235 234 238 242 228 217 213 217 215 220 220 221 223 227
266 261 257 254 251 248 246 247 247 247 247 243 244 245 251 248 237 233 233 234 237 234 231 229 225 227 222 230 226 226 233 237 237 238 227 218 218 215 219 221 223 225 228
266 264 261 255 252 249 248 246 245 246 248 247 246 244 248 246 255 235 234 233 233 231 233 231 228 230 233 232 236 225 222 228 237 237 231 222 220 216 218 219 223 225 228
267 264 262 258 254 251 248 246 244 243 243 243 248 246 245 245 253 242 225 231 235 228 233 234 230 226 224 222 224 233 216 223 229 235 236 230 225 221 220 222 224 226 230
267 265 265 260 257 253 250 246 245 242 239 240 232 243 239 249 251 235 223 230 230 230 233 235 228 227 221 224 231 213 214 219 225 231 232 235 229 224 220 222 224 227 230
268 265 263 263 259 257 252 247 244 243 238 236 233 235 241 239 240 249 230 230 228 229 232 233 231 227 222 225 222 217 208 219 226 225 226 236 237 227 221 221 223 225 227
269 267 266 262 260 258 256 250 244 242 239 233 231 228 235 232 241 254 245 239 245 227 228 228 231 228 224 226 226 227 222 218 228 229 230 238 235 228 222 222 226 229 232
271 267 266 263 260 258 258 254 248 241 237 231 229 227 227 230 230 247 243 235 231 222 229 228 234 232 227 227 225 227 227 237 232 231 233 238 229 225 227 228 230 234 236
277 269 266 264 260 256 255 255 251 245 236 229 224 222 223 230 228 223 227 246 242 229 232 228 233 236 231 229 228 228 226 221 228 228 231 228 226 226 234 240 240 243 241
279 273 266 264 261 256 252 251 250 247 240 230 222 220 218 222 222 229 234 246 239 231 235 236 232 226 232 232 228 227 224 220 220 225 225 221 228 232 235 241 250 253 245
284 276 269 263 261 255 252 248 248 247 241 235 224 219 218 218 222 224 231 222 233 232 245 235 230 227 225 226 228 226 222 215 219 219 218 222 227 229 231 242 251 257 249
287 279 273 267 261 257 249 248 245 244 241 236 232 223 219 218 217 217 212 207 217 216 240 233 227 229 224 224 222 220 220 219 215 214 212 222 223 228 238 240 250 254 247
286 281 274 269 265 260 251 246 244 241 240 237 233 230 223 222 225 230 222 224 208 212 222 227 240 227 226 221 221 222 218 220 213 210 216 216 220 227 235 240 243 245 240
289 281 275 270 266 261 257 246 244 241 239 236 234 232 229 227 223 222 224 219 218 214 218 219 231 227 220 220 221 222 224 224 219 214 213 215 221 226 231 237 236 234 231
291 285 278 271 267 263 257 252 242 242 239 236 234 234 232 231 227 222 221 221 227 226 222 225 229 228 214 210 218 219 225 226 231 220 228 224 221 230 229 232 228 227 226
293 288 282 275 268 264 260 253 246 241 239 236 234 234 235 236 234 231 228 225 224 227 236 235 231 224 223 215 221 216 221 223 227 225 219 220 222 224 227 227 224 222 225
295 290 284 278 272 265 260 256 249 241 240 237 236 235 235 236 237 234 230 229 227 228 222 230 218 223 226 217 218 222 218 218 220 219 219 219 220 222 225 226 225 221 224
296 291 288 282 274 266 259 256 252 245 241 237 236 237 236 236 239 238 231 230 226 220 221 218 213 216 221 224 217 210 217 220 220 217 219 221 221 222 223 222 222 221 224
309 296 289 283 275 269 262 256 252 248 245 239 235 238 237 238 240 239 238 236 231 228 226 230 227 232 222 224 225 214 217 223 223 218 216 218 221 224 225 223 225 226 227
315 304 295 287 279 271 264 257 252 251 248 240 237 239 236 240 243 243 243 240 238 234 224 219 223 230 224 219 226 221 225 222 216 218 217 217 216 220 222 227 229 225 226
325 316 304 296 288 276 265 259 252 249 247 241 240 241 240 241 247 248 246 242 240 240 240 231 217 205 231 230 228 229 230 221 221 221 218 221 220 220 223 225 224 223 227
338 335 326 312 300 283 271 265 257 252 251 251 249 247 246 244 248 252 248 242 239 237 237 237 235 212 218 215 211 218 226 229 219 222 219 217 220 221 221 222 224 225 226
344 351 349 334 322 301 284 277 271 267 263 262 258 256 254 250 251 251 249 245 242 237 235 234 230 230 220 220 216 210 214 221 232 228 222 219 218 218 223 223 224 224 225